Showing default

BELINTERSAT 1, 41238

Orbit data source: Space-Track

BELINTERSAT 1, 41238 is a payload satellite owned by ZTZM (BY) in GEO that was launched on Fri, 15 Jan 2016 UTC via a CHANG ZHENG 3B launch vehicle from the Xichang Space Center, China (XSC). Payloads include a variety of satellites, spacecraft, and rockets equipped with specific instruments for various scientific and technological missions. These include communications satellites like Starlink; space stations such as the ISS; scientific satellites like the Hubble; Earth observation satellites from companies like Planet Labs, Umbra, and HawkEye 360; GPS; miniature CubeSats for education and research; and military/defense satellites.

Not visible in the next 10 days
BELINTERSAT 1 details
Identifier
41238, 2016-001A
Orbit
GEO
Last TLE update23 hours ago
Origin
Flag of BYZTZM (BY / BELA)
ManufacturerCAST
MissionOperational Commercial Communications
Bus & MotorDFH-4, DFH-4 LAE
Mass5,200 kg wet, ~2,500 kg dry
Launch date (UTC)
2016-01-15 (9 years ago)
Launch vehicle
CHANG ZHENG 3B
Launch site
Xichang Space Center, China (XSC)
Object type
Payload
Rocket body
Debris
Shape & HBRBox + 2 Pan, 30 m
Radar Cross Section34.063 m², Large (>1 m²)

Expand to show TLE details & history

TLE from 23 hours ago
0 BELINTERSAT 1
1 41238U 16001A   24360.53930715  .00000133  00000-0  00000-0 0  9991
2 41238   0.0196  78.5573 0002535 174.7786  86.8547  1.00272772 32838
Epoch: 2024-12-25T12:56Z
Definitive object data (Epoch: 2024-12-25T12:56:36.137Z)
Latitude-0.01841°
Longitude51.53085°
Altitude35,785.2 km
Speed3.075 km/s
True Right ascension22h 40m 51s
True Declination0° 01' 06"
Sunlit
Object was in daylight at TLE epoch
Visualization TLE readout
Latitude-0.02451°
Longitude30.60358°
Altitude35,781.306 km
Speed3.075 km/s
Apparent Right ascension21h 26m 40s
Apparent Declination-5° 00' 15"
Sunlit
Object is in daylight
Visualization observer readout
Local Sidereal Time10:50:32
Azimuth33.925° NE
Elevation-50.304°
Doppler factor1
Orbital elements
Apogee altitude35,798.078 km
Perigee altitude35,776.7 km
Semi-major axis42,165.526 km
Eccentricity0.0002535
Inclination0.0196°
RAAN78.5573°
Arg. of periapsis174.7786°
True anomaly86.88371°
Mean anomaly86.8547°
Eccentric anomaly86.8692°
Mean motion0.25067 °/min
BSTARUnknown
Orbital period1436.14 mins
Loading historical data...
41238 neighbors
Authenticating...
Loading maneuver chart data...
Loading historical data...
Loading historical data...
Loading historical data...
Loading historical data...
Loading historical data...
Loading historical data...
Loading historical data...
Other satellites on launch #1 in the year 2016 (2016-01-15 UTC)

BELINTERSAT 1 Visibility forecast

Observer location: undefined°, undefined

BELINTERSAT 1 is not visible in the next 10 days
Span
Click to sort rows by Start time (UTC) header in descending order
Start Az.
Max El. time (UTC)
Max El. Az.
Max El.
End time (UTC)
End Az.
|